Regional Weather Roundup
Issued by NWS

Home | Current Version | Previous Version | Graphics & Text | Print | Product List | Glossary On
Versions: 1 2 3 4 5 6 7 8 9 10 11 12 13 14 15 16 17 18 19 20 21 22 23 24 25 26 27 28 29 30 31 32 33 34 35 36 37 38 39 40 41 42 43 44 45 46 47 48 49 50
381
ASUS45 KCYS 251710
RWRWY

WYOMING REGIONAL WEATHER ROUNDUP
NATIONAL WEATHER SERVICE CHEYENNE WY
1100 AM MDT TUE APR 25 2017

NOTE:  "FAIR" INDICATES FEW OR NO CLOUDS BELOW 12,000 FEET
WITH NO SIGNIFICANT WEATHER AND/OR OBSTRUCTIONS TO VISIBILITY.

WYZ001-251800-
YELLOWSTONE NATIONAL PARK

CITY           SKY/WX    TMP DP  RH WIND       PRES   REMARKS
LK YELLOWSTONE   N/A     35  27  72 CALM      29.76R
W YELLOWSTONE  NOT AVBL

$$
WYZ002>013-054>058-071-098>099-251800-
NORTHERN WYOMING

CITY           SKY/WX    TMP DP  RH WIND       PRES   REMARKS
JACKSON        PTSUNNY   37  34  87 W5        29.73R WCI  34
CODY           MIX PCPN  34  30  85 N14       29.80R WCI  25
GREYBULL       CLOUDY    37  29  72 N30G37    29.70R WCI  24
WORLAND        CLOUDY    41  34  76 N25G33    29.69R
SHERIDAN       SNOW      32  30  92 N10       29.81R VSB 1/2 WCI  24
BUFFALO        NOT AVBL
GILLETTE       LGT SNOW  28  32 100 N20       29.74R WCI  15
HULETT         LGT SNOW  30  27  86 NE14G22   29.73R WCI  20
NEWCASTLE      DRIZZLE   36  32  87 CALM      29.63R

$$
WYZ014>020-022>026-101>103-251800-
CENTRAL WYOMING

CITY           SKY/WX    TMP DP  RH WIND       PRES   REMARKS
BIG PINEY      CLOUDY    40  26  57 N13G23    29.71R WCI  32
PINEDALE       PTSUNNY   34  30  86 W16G22    29.71S WCI  23
DUBOIS         CLOUDY    37  21  52 N12       29.67R WCI  30
LANDER         FLURRIES  36  34  92 N13       29.70R WCI  27
RIVERTON       LGT RAIN  37  34  89 N14G23    29.69R WCI  28
CASPER         LGT SNOW  31  29  92 N15       29.69R VSB 1   WCI  20
DOUGLAS        PTSUNNY   38  28  67 NW30G36   29.61R WCI  26

$$
WYZ021-027>030-104>119-251800-
SOUTHERN WYOMING

CITY           SKY/WX    TMP DP  RH WIND       PRES   REMARKS
EVANSTON       CLOUDY    36  30  79 W15       29.77R WCI  27
KEMMERER         N/A     36  30  80 W20       29.75R WCI  25
FORT BRIDGER   CLOUDY    38  34  84 NW14      29.78R WCI  30
ROCK SPRINGS   FAIR      43  29  57 W22G29    29.69R
DIXON          FLURRIES  40  30  67 W7        29.72S WCI  35
RAWLINS        CLOUDY    40  28  62 W18       29.65R WCI  31
SARATOGA       CLOUDY    39  28  65 W15G22    29.68R WCI  31
LARAMIE        FAIR      42  25  50 W28G35    29.60R
CHEYENNE       FAIR      48  25  40 W23G35    29.60S
TORRINGTON     FAIR      51  42  71 NE22      29.56R
PINE BLUFFS    PTSUNNY   52  28  40 W22G30    29.60R

$$




USA.gov is the U.S. government's official web portal to all federal, state and local government web resources and services.